Location: Unspecified
(0.0000°N, 0.0000°E)
Time: 13:28:45
(UTC+00:00)

Tiangong - Visible Passes

Search period start: 07 September 2024 00:00
Search period end: 17 September 2024 00:00
Orbit: 377 x 379 km, 41.5° (Epoch: 07 September)

Date Brightness Start Highest point End Pass type
(mag) Time Alt. Az. Time Alt. Az. Time Alt. Az.
09 Sep 1.0 19:42:40 10° SW 19:42:42 10° SW 19:42:42 10° SW visible
10 Sep -0.8 18:41:00 10° SSW 18:43:32 23° SE 18:44:28 20° ESE visible
11 Sep -1.0 19:14:43 10° WSW 19:17:40 39° NW 19:18:19 34° N visible
13 Sep 0.6 18:46:52 10° W 18:49:02 17° NW 18:51:11 10° N visible
14 Sep 1.0 04:40:06 10° NNE 04:41:09 11° NE 04:42:11 10° ENE visible
15 Sep -2.1 05:11:43 10° NW 05:14:48 80° NE 05:17:54 10° SE visible
16 Sep 0.3 04:12:30 22° ENE 04:12:30 22° ENE 04:14:26 10° E visible
